sat.trackr.live / text

‹ back to catalog

CUBY-3

NORAD 69875 · 2026-156G

PAYLOAD ACTIVE UNKNOWN

§ Identity

Operator
Country
GER
Launch date
2026-07-07
Launch site
AFWTR
Launch vehicle
Mass (kg)
RCS (m²)

External: N2YO · Heavens-Above · Gunter

§ Orbital elements

Epoch: 2026-09-20T00:53:13.718976Z

Period
96.58 min
Inclination
97.7422°
Eccentricity
0.0002164
Mean motion
14.91064926 rev/d
Perigee alt
593.1 km
Apogee alt
596.1 km
Semi-major
6,972.8 km
B*
3.1783e-5
RAAN
162.1210°
Arg perigee
220.0733°
Mean anomaly
140.0326°
Rev number
1,113

§ Raw data

CUBY-31 69875U 26156G   26263.03696434  .00000260  00000+0  31783-4 0  99922 69875  97.7422 162.1210 0002164 220.0733 140.0326 14.91064926 11135

JSON: /api/v1/satellites/69875 · /tle

For live sub-satellite position, see the globe view (requires WebGL).

§ Visibility from observer

Set your observer location to see the next 7 days of passes ≥ 10°. The values pass through the URL so the page stays shareable.

No JS? Fill the form by hand. The geolocation button needs JavaScript.